contact:dominique.lefevre@mio.osupytheas.fr, maurice.libes@osupytheas.fr, didier.mallarino@osupytheas.fr
Project:EMSO http://www.emso-fr.org/EMSO-France
Depth: 2436.0 m
Title:EMSO Ligure Ouest : Data MII capteur AQUADOPP
Date,Latitude,Longitude,X_East,Y_North,Z_Up,Amplitude_X,Amplitude_Y,Amplitude_Z,Batterie,SoundSpeed,Heading,Pitch,Roll,Pressure,TIS,Speed,Direction
, degrees North, degrees East, m.s-1, m.s-1,m.s-1, 1, 1, 1, Volt, m.s-1, degree, degree, degree, dbar, degree_C, m.s-1, degree
2021-01-14T00:04:03,42.805,6.029,0.017,-0.031,0.016,107.0,108.0,104.0,13.4,1505.2,322.6,-0.7,1.8,2470.298,13.3,0.035,151.3
2021-01-14T00:07:03,42.805,6.029,0.028,-0.035,-0.019,107.0,108.0,104.0,13.4,1505.3,323.9,-0.7,1.8,2470.289,13.31,0.044,141.3
2021-01-14T00:10:03,42.805,6.029,0.019,-0.032,-0.023,107.0,108.0,103.0,13.4,1505.3,323.0,-0.7,1.8,2470.299,13.31,0.037,149.3
2021-01-14T00:13:03,42.805,6.029,0.023,-0.027,0.008,109.0,108.0,104.0,13.4,1505.3,326.1,-0.7,1.8,2470.293,13.32,0.035,139.6
2021-01-14T00:16:03,42.805,6.029,0.017,-0.039,0.01,108.0,107.0,104.0,13.4,1505.3,328.0,-0.7,1.8,2470.269,13.32,0.042,156.5
2021-01-14T00:19:03,42.805,6.029,0.031,-0.027,0.005,106.0,108.0,104.0,13.4,1505.3,325.3,-0.7,1.8,2470.278,13.32,0.041,131.1
2021-01-14T00:25:03,42.805,6.029,0.034,-0.021,0.01,108.0,108.0,103.0,13.4,1505.2,328.5,-0.7,1.8,2470.302,13.3,0.039,121.7
2021-01-14T00:28:03,42.805,6.029,0.041,-0.035,-0.006,108.0,108.0,104.0,13.4,1505.3,323.0,-0.7,1.8,2470.298,13.31,0.053,130.5
2021-01-14T00:31:03,42.805,6.029,0.017,-0.021,0.032,109.0,109.0,104.0,13.4,1505.3,324.0,-0.7,1.8,2470.284,13.31,0.027,141.0
2021-01-14T00:34:03,42.805,6.029,0.026,-0.022,0.02,107.0,108.0,106.0,13.4,1505.3,327.1,-0.7,1.8,2470.28,13.32,0.034,130.2
2021-01-14T00:37:03,42.805,6.029,0.017,-0.023,-0.035,108.0,108.0,105.0,13.3,1505.3,326.5,-0.7,1.8,2470.308,13.32,0.028,143.5
2021-01-14T00:40:03,42.805,6.029,0.026,-0.025,0.01,108.0,108.0,104.0,13.4,1505.3,326.8,-0.7,1.8,2470.304,13.32,0.036,133.9
2021-01-14T00:43:03,42.805,6.029,0.012,-0.012,-0.009,108.0,108.0,104.0,13.4,1505.3,327.2,-0.7,1.9,2470.281,13.32,0.016,135.0
2021-01-14T00:46:03,42.805,6.029,0.052,-0.017,0.033,108.0,108.0,104.0,13.4,1505.3,325.1,-0.7,1.8,2470.302,13.32,0.054,108.1
2021-01-14T00:49:03,42.805,6.029,0.01,-0.029,-0.043,107.0,108.0,104.0,13.4,1505.3,323.1,-0.7,1.8,2470.304,13.32,0.03,161.0
2021-01-14T00:52:03,42.805,6.029,0.026,-0.05,0.008,108.0,107.0,104.0,13.3,1505.3,328.1,-0.7,1.8,2470.256,13.32,0.056,152.5
2021-01-14T00:55:03,42.805,6.029,0.012,-0.033,0.0,109.0,108.0,104.0,13.4,1505.3,325.4,-0.7,1.8,2470.272,13.32,0.035,160.0
2021-01-14T00:58:03,42.805,6.029,0.014,-0.025,-0.001,107.0,108.0,103.0,13.4,1505.3,325.0,-0.7,1.8,2470.281,13.32,0.028,150.7
2021-01-14T01:04:03,42.805,6.029,0.01,-0.035,0.005,109.0,109.0,105.0,13.3,1505.2,323.3,-0.7,1.8,2470.255,13.3,0.036,164.1
2021-01-14T01:07:03,42.805,6.029,0.04,-0.039,0.031,107.0,108.0,104.0,13.4,1505.3,325.2,-0.7,1.8,2470.242,13.31,0.055,134.3
2021-01-14T01:10:03,42.805,6.029,0.023,-0.049,-0.007,107.0,108.0,103.0,13.4,1505.3,326.4,-0.7,1.8,2470.293,13.31,0.054,154.9
2021-01-14T01:13:03,42.805,6.029,0.019,-0.044,0.0,108.0,108.0,104.0,13.3,1505.3,327.7,-0.7,1.8,2470.271,13.32,0.047,156.6
2021-01-14T01:16:03,42.805,6.029,0.028,-0.046,0.006,107.0,109.0,104.0,13.3,1505.3,328.1,-0.7,1.8,2470.3,13.32,0.053,148.7
2021-01-14T01:19:03,42.805,6.029,0.042,-0.03,0.025,107.0,108.0,103.0,13.4,1505.3,326.9,-0.7,1.8,2470.291,13.32,0.051,125.5
2021-01-14T01:22:03,42.805,6.029,0.055,-0.028,0.059,108.0,107.0,105.0,13.3,1505.3,324.9,-0.7,1.8,2470.272,13.32,0.061,117.0
2021-01-14T01:25:03,42.805,6.029,0.004,-0.027,0.009,107.0,107.0,104.0,13.4,1505.3,323.6,-0.7,1.8,2470.244,13.32,0.027,171.6
2021-01-14T01:28:03,42.805,6.029,0.009,-0.036,-0.024,106.0,107.0,105.0,13.3,1505.3,327.2,-0.7,1.8,2470.254,13.32,0.037,166.0
2021-01-14T01:31:03,42.805,6.029,0.023,-0.031,0.002,108.0,107.0,103.0,13.3,1505.3,327.0,-0.7,1.8,2470.23,13.32,0.038,143.4
2021-01-14T01:34:03,42.805,6.029,0.031,-0.032,0.013,108.0,108.0,104.0,13.4,1505.3,324.2,-0.7,1.8,2470.222,13.32,0.044,135.9
2021-01-14T01:37:03,42.805,6.029,-0.005,-0.043,-0.018,107.0,107.0,104.0,13.4,1505.3,326.6,-0.7,1.8,2470.246,13.32,0.043,186.6
2021-01-14T01:40:03,42.805,6.029,0.029,-0.018,0.0,109.0,108.0,104.0,13.4,1505.3,324.6,-0.7,1.8,2470.274,13.32,0.034,121.8
2021-01-14T01:43:03,42.805,6.029,0.023,-0.041,-0.036,107.0,108.0,104.0,13.4,1505.3,324.4,-0.7,1.8,2470.255,13.32,0.047,150.7
2021-01-14T01:46:03,42.805,6.029,0.004,-0.039,0.016,106.0,109.0,104.0,13.4,1505.3,328.0,-0.7,1.8,2470.253,13.32,0.039,174.1
2021-01-14T01:49:03,42.805,6.029,0.027,-0.009,-0.009,108.0,108.0,104.0,13.4,1505.3,324.0,-0.7,1.8,2470.24,13.32,0.028,108.4
2021-01-14T01:52:03,42.805,6.029,0.026,-0.025,0.013,109.0,108.0,103.0,13.3,1505.3,327.2,-0.7,1.8,2470.246,13.32,0.036,133.9
2021-01-14T01:55:03,42.805,6.029,0.003,-0.026,-0.008,107.0,107.0,104.0,13.3,1505.3,326.3,-0.7,1.8,2470.19,13.32,0.026,173.4
2021-01-14T01:58:03,42.805,6.029,0.027,-0.023,0.0,108.0,108.0,103.0,13.4,1505.3,324.5,-0.7,1.8,2470.234,13.32,0.035,130.4
2021-01-14T02:04:03,42.805,6.029,0.027,-0.035,-0.012,108.0,107.0,103.0,13.4,1505.2,324.5,-0.7,1.8,2470.268,13.3,0.044,142.3
2021-01-14T02:07:03,42.805,6.029,0.044,-0.011,0.035,108.0,108.0,105.0,13.4,1505.3,325.3,-0.7,1.8,2470.288,13.31,0.045,104.0
2021-01-14T02:10:03,42.805,6.029,0.029,-0.023,-0.021,108.0,109.0,104.0,13.4,1505.3,324.2,-0.7,1.8,2470.273,13.31,0.037,128.4
2021-01-14T02:13:03,42.805,6.029,0.014,-0.038,-0.034,107.0,108.0,104.0,13.3,1505.3,323.7,-0.7,1.8,2470.292,13.32,0.04,159.8
2021-01-14T02:16:03,42.805,6.029,0.016,-0.045,-0.012,108.0,108.0,105.0,13.4,1505.3,326.6,-0.7,1.9,2470.22,13.32,0.047,160.4
2021-01-14T02:19:03,42.805,6.029,0.017,-0.026,-0.002,107.0,108.0,105.0,13.4,1505.3,327.1,-0.7,1.8,2470.257,13.32,0.031,146.8
2021-01-14T02:22:03,42.805,6.029,0.022,-0.026,0.024,107.0,108.0,104.0,13.4,1505.3,322.7,-0.7,1.8,2470.291,13.32,0.034,139.8
2021-01-14T02:25:03,42.805,6.029,0.006,-0.038,0.012,107.0,108.0,103.0,13.4,1505.3,324.4,-0.7,1.8,2470.271,13.32,0.038,171.0
2021-01-14T02:28:03,42.805,6.029,0.03,-0.047,-0.003,106.0,110.0,103.0,13.3,1505.3,324.0,-0.7,1.8,2470.281,13.32,0.055,147.4
2021-01-14T02:31:03,42.805,6.029,0.028,-0.022,-0.008,108.0,108.0,103.0,13.3,1505.3,325.1,-0.7,1.8,2470.252,13.32,0.035,128.2
2021-01-14T02:34:03,42.805,6.029,0.036,-0.011,-0.002,109.0,107.0,104.0,13.4,1505.3,326.7,-0.7,1.8,2470.258,13.32,0.037,107.0
2021-01-14T02:37:03,42.805,6.029,0.021,-0.02,0.014,107.0,107.0,104.0,13.3,1505.3,326.7,-0.7,1.8,2470.245,13.32,0.028,133.6
2021-01-14T02:40:03,42.805,6.029,0.051,-0.058,0.015,108.0,108.0,102.0,13.4,1505.3,328.5,-0.7,1.8,2470.228,13.32,0.077,138.7
2021-01-14T02:43:03,42.805,6.029,0.016,-0.024,-0.01,108.0,107.0,103.0,13.4,1505.3,326.5,-0.7,1.8,2470.241,13.32,0.028,146.3
2021-01-14T02:46:03,42.805,6.029,0.041,-0.039,0.039,107.0,108.0,103.0,13.4,1505.3,327.8,-0.7,1.8,2470.246,13.32,0.056,133.6
2021-01-14T02:49:03,42.805,6.029,0.025,-0.036,-0.001,107.0,108.0,104.0,13.4,1505.3,325.9,-0.7,1.8,2470.246,13.32,0.043,145.2
2021-01-14T02:52:03,42.805,6.029,0.05,-0.042,0.026,108.0,107.0,104.0,13.4,1505.3,327.4,-0.7,1.9,2470.267,13.32,0.065,130.0
2021-01-14T02:55:03,42.805,6.029,0.038,-0.037,0.012,107.0,107.0,103.0,13.4,1505.3,324.3,-0.6,1.8,2470.247,13.32,0.053,134.2
2021-01-14T02:58:03,42.805,6.029,0.033,-0.038,0.023,107.0,107.0,103.0,13.3,1505.3,327.9,-0.7,1.8,2470.249,13.32,0.05,139.0
2021-01-14T03:04:03,42.805,6.029,0.014,-0.038,0.001,107.0,108.0,105.0,13.4,1505.2,325.6,-0.7,1.8,2470.303,13.3,0.04,159.8
2021-01-14T03:07:03,42.805,6.029,0.005,-0.031,0.035,108.0,109.0,102.0,13.4,1505.3,328.2,-0.7,1.9,2470.339,13.31,0.031,170.8
2021-01-14T03:10:03,42.805,6.029,0.036,-0.019,-0.008,109.0,109.0,103.0,13.3,1505.3,324.1,-0.7,1.8,2470.254,13.31,0.04,117.8
2021-01-14T03:13:03,42.805,6.029,0.032,-0.023,0.0,107.0,108.0,104.0,13.4,1505.3,328.4,-0.7,1.8,2470.325,13.32,0.039,125.7
2021-01-14T03:16:03,42.805,6.029,0.0,-0.016,-0.002,108.0,108.0,104.0,13.3,1505.3,326.6,-0.7,1.8,2470.306,13.32,0.016,180.0
2021-01-14T03:19:03,42.805,6.029,0.015,-0.037,-0.014,108.0,109.0,104.0,13.4,1505.3,325.6,-0.7,1.8,2470.298,13.32,0.039,157.9
2021-01-14T03:22:03,42.805,6.029,0.022,-0.052,0.013,108.0,107.0,104.0,13.4,1505.3,323.4,-0.7,1.8,2470.293,13.32,0.056,157.1
2021-01-14T03:25:03,42.805,6.029,0.03,-0.039,-0.001,106.0,109.0,103.0,13.4,1505.3,326.5,-0.7,1.8,2470.288,13.32,0.049,142.4
2021-01-14T03:28:03,42.805,6.029,0.028,-0.014,-0.017,108.0,106.0,103.0,13.4,1505.3,326.2,-0.7,1.8,2470.273,13.32,0.031,116.6
2021-01-14T03:31:03,42.805,6.029,0.013,-0.024,-0.018,107.0,107.0,103.0,13.4,1505.3,326.2,-0.7,1.9,2470.281,13.32,0.027,151.6
2021-01-14T03:34:03,42.805,6.029,0.039,-0.021,0.003,107.0,108.0,104.0,13.4,1505.3,326.4,-0.7,1.8,2470.295,13.32,0.044,118.3
2021-01-14T03:37:03,42.805,6.029,0.006,-0.021,-0.002,108.0,107.0,103.0,13.4,1505.3,325.9,-0.7,1.8,2470.319,13.32,0.021,164.1
2021-01-14T03:40:03,42.805,6.029,0.039,-0.046,0.0,106.0,107.0,104.0,13.3,1505.3,323.7,-0.7,1.9,2470.284,13.32,0.06,139.7
2021-01-14T03:43:03,42.805,6.029,0.009,-0.034,0.002,107.0,107.0,104.0,13.3,1505.3,326.8,-0.7,1.9,2470.28,13.32,0.035,165.2
2021-01-14T03:46:03,42.805,6.029,0.038,-0.036,0.009,107.0,107.0,105.0,13.3,1505.3,325.8,-0.7,1.8,2470.282,13.32,0.052,133.5
2021-01-14T03:49:03,42.805,6.029,0.015,-0.039,-0.01,107.0,107.0,103.0,13.4,1505.3,327.0,-0.7,1.8,2470.244,13.32,0.041,159.0
2021-01-14T03:52:03,42.805,6.029,0.002,-0.034,-0.045,108.0,107.0,105.0,13.3,1505.3,324.9,-0.7,1.8,2470.306,13.32,0.034,176.6
2021-01-14T03:55:03,42.805,6.029,0.02,-0.035,0.029,108.0,108.0,103.0,13.4,1505.3,326.5,-0.7,1.8,2470.29,13.32,0.04,150.3
2021-01-14T03:58:03,42.805,6.029,0.033,-0.035,-0.006,108.0,107.0,104.0,13.4,1505.3,325.1,-0.7,1.9,2470.319,13.32,0.048,136.7
2021-01-14T04:04:03,42.805,6.029,0.033,-0.016,0.006,107.0,108.0,104.0,13.4,1505.2,327.8,-0.7,1.8,2470.359,13.3,0.036,115.9
2021-01-14T04:07:03,42.805,6.029,0.009,-0.036,-0.009,108.0,107.0,104.0,13.3,1505.3,327.6,-0.7,1.8,2470.328,13.31,0.037,166.0
2021-01-14T04:10:03,42.805,6.029,0.008,-0.028,-0.006,109.0,108.0,103.0,13.4,1505.3,323.2,-0.7,1.8,2470.367,13.31,0.029,164.1
2021-01-14T04:13:03,42.805,6.029,0.019,-0.036,-0.015,108.0,107.0,104.0,13.4,1505.3,322.6,-0.7,1.8,2470.392,13.32,0.04,152.2
2021-01-14T04:16:03,42.805,6.029,0.025,-0.027,-0.009,108.0,108.0,104.0,13.4,1505.3,324.9,-0.7,1.8,2470.355,13.32,0.036,137.2
2021-01-14T04:19:03,42.805,6.029,0.047,-0.041,0.004,107.0,108.0,104.0,13.4,1505.3,323.1,-0.7,1.8,2470.331,13.32,0.062,131.1
2021-01-14T04:22:03,42.805,6.029,0.036,-0.015,-0.003,108.0,108.0,104.0,13.4,1505.3,325.8,-0.7,1.8,2470.37,13.32,0.039,112.6
2021-01-14T04:25:03,42.805,6.029,0.034,-0.031,0.04,107.0,108.0,105.0,13.4,1505.3,323.4,-0.7,1.8,2470.339,13.32,0.046,132.4
2021-01-14T04:28:03,42.805,6.029,0.005,-0.02,-0.008,108.0,108.0,104.0,13.3,1505.3,326.7,-0.7,1.8,2470.338,13.32,0.02,166.0
2021-01-14T04:31:03,42.805,6.029,0.011,-0.029,-0.003,108.0,108.0,104.0,13.3,1505.3,328.1,-0.7,1.8,2470.355,13.32,0.031,159.2
2021-01-14T04:34:03,42.805,6.029,0.034,-0.051,0.011,107.0,108.0,104.0,13.4,1505.3,324.9,-0.7,1.8,2470.351,13.32,0.061,146.3
2021-01-14T04:37:03,42.805,6.029,0.021,-0.044,0.006,107.0,107.0,104.0,13.4,1505.3,323.0,-0.7,1.8,2470.383,13.32,0.048,154.5
2021-01-14T04:40:03,42.805,6.029,0.018,-0.05,0.009,107.0,107.0,104.0,13.4,1505.3,327.3,-0.7,1.8,2470.37,13.32,0.053,160.2
2021-01-14T04:43:03,42.805,6.029,0.039,-0.039,-0.007,108.0,108.0,105.0,13.3,1505.3,324.5,-0.7,1.8,2470.319,13.32,0.055,135.0
2021-01-14T04:46:03,42.805,6.029,0.038,-0.013,0.015,106.0,109.0,104.0,13.4,1505.3,326.8,-0.7,1.8,2470.367,13.32,0.04,108.9
2021-01-14T04:49:03,42.805,6.029,0.037,-0.034,0.035,107.0,108.0,103.0,13.4,1505.3,324.1,-0.7,1.8,2470.387,13.32,0.05,132.6
2021-01-14T04:52:03,42.805,6.029,0.027,-0.037,-0.024,107.0,107.0,104.0,13.4,1505.3,325.5,-0.7,1.8,2470.374,13.32,0.045,143.9
2021-01-14T04:55:03,42.805,6.029,0.036,-0.034,-0.004,108.0,107.0,105.0,13.4,1505.3,326.8,-0.7,1.8,2470.342,13.32,0.049,133.4
2021-01-14T04:58:03,42.805,6.029,0.021,-0.026,-0.014,107.0,108.0,104.0,13.4,1505.3,324.0,-0.7,1.8,2470.389,13.32,0.033,141.1
2021-01-14T05:04:03,42.805,6.029,0.043,-0.019,0.0,107.0,108.0,103.0,13.4,1505.2,324.5,-0.7,1.8,2470.411,13.3,0.047,113.8
2021-01-14T05:07:03,42.805,6.029,0.034,-0.024,-0.002,109.0,109.0,105.0,13.4,1505.3,328.1,-0.7,1.8,2470.451,13.31,0.041,125.2
2021-01-14T05:10:03,42.805,6.029,0.006,-0.02,-0.016,108.0,108.0,104.0,13.3,1505.3,326.7,-0.7,1.8,2470.424,13.31,0.02,163.3
2021-01-14T05:13:03,42.805,6.029,0.006,-0.021,-0.013,108.0,109.0,104.0,13.4,1505.3,325.7,-0.7,1.8,2470.438,13.32,0.021,164.1
2021-01-14T05:16:03,42.805,6.029,0.011,-0.064,-0.026,109.0,109.0,104.0,13.3,1505.3,322.6,-0.7,1.8,2470.417,13.32,0.064,170.2
2021-01-14T05:19:03,42.805,6.029,0.032,-0.042,0.008,107.0,109.0,105.0,13.3,1505.3,328.0,-0.7,1.8,2470.428,13.32,0.052,142.7
2021-01-14T05:22:03,42.805,6.029,0.019,-0.058,-0.007,109.0,109.0,104.0,13.4,1505.3,326.9,-0.7,1.8,2470.387,13.32,0.061,161.9
2021-01-14T05:25:03,42.805,6.029,0.02,-0.045,-0.008,109.0,107.0,104.0,13.3,1505.3,324.1,-0.7,1.8,2470.451,13.32,0.049,156.0
2021-01-14T05:28:03,42.805,6.029,0.024,-0.031,-0.013,108.0,109.0,103.0,13.4,1505.3,325.3,-0.7,1.8,2470.453,13.32,0.039,142.3
2021-01-14T05:31:03,42.805,6.029,0.023,-0.042,0.034,107.0,108.0,104.0,13.4,1505.3,323.1,-0.7,1.8,2470.432,13.32,0.047,151.3
2021-01-14T05:34:03,42.805,6.029,0.029,-0.049,0.01,108.0,108.0,104.0,13.4,1505.3,327.6,-0.7,1.8,2470.443,13.32,0.056,149.4
2021-01-14T05:37:03,42.805,6.029,0.047,-0.036,-0.007,108.0,109.0,104.0,13.4,1505.3,323.5,-0.7,1.8,2470.439,13.32,0.059,127.5
2021-01-14T05:40:03,42.805,6.029,0.024,-0.04,-0.014,107.0,108.0,104.0,13.4,1505.3,323.1,-0.7,1.8,2470.462,13.32,0.046,149.0
2021-01-14T05:43:03,42.805,6.029,0.029,-0.019,0.002,107.0,107.0,104.0,13.4,1505.3,326.9,-0.7,1.8,2470.452,13.32,0.034,123.2
2021-01-14T05:46:03,42.805,6.029,0.044,-0.052,0.013,107.0,109.0,104.0,13.4,1505.3,328.3,-0.7,1.8,2470.467,13.32,0.068,139.8
2021-01-14T05:49:03,42.805,6.029,0.028,-0.015,-0.003,108.0,108.0,104.0,13.3,1505.3,324.6,-0.7,1.8,2470.441,13.32,0.031,118.2
2021-01-14T05:52:03,42.805,6.029,0.023,-0.052,0.0,109.0,109.0,104.0,13.4,1505.3,324.7,-0.7,1.8,2470.464,13.32,0.056,156.1
2021-01-14T05:55:03,42.805,6.029,0.04,-0.038,-0.005,107.0,108.0,104.0,13.4,1505.3,324.4,-0.7,1.8,2470.461,13.32,0.055,133.5
2021-01-14T05:58:03,42.805,6.029,0.039,-0.023,0.025,109.0,108.0,105.0,13.3,1505.3,323.8,-0.7,1.8,2470.464,13.32,0.045,120.5
2021-01-14T06:04:03,42.805,6.029,0.02,-0.028,0.022,109.0,108.0,104.0,13.4,1505.2,323.7,-0.7,1.8,2470.48,13.3,0.034,144.5
2021-01-14T06:07:03,42.805,6.029,0.024,-0.041,-0.006,109.0,108.0,105.0,13.4,1505.3,327.4,-0.7,1.8,2470.492,13.31,0.047,149.7
2021-01-14T06:10:03,42.805,6.029,0.033,-0.054,0.014,108.0,109.0,104.0,13.4,1505.3,326.9,-0.7,1.8,2470.503,13.31,0.063,148.6
2021-01-14T06:16:03,42.805,6.029,0.028,-0.045,0.004,108.0,109.0,104.0,13.3,1505.2,327.5,-0.7,1.8,2470.51,13.3,0.053,148.1
2021-01-14T06:19:03,42.805,6.029,0.054,-0.024,0.007,107.0,108.0,104.0,13.4,1505.3,324.4,-0.7,1.8,2470.487,13.31,0.059,114.0
2021-01-14T06:22:03,42.805,6.029,0.031,-0.027,-0.028,108.0,108.0,104.0,13.3,1505.3,324.3,-0.7,1.8,2470.521,13.31,0.041,131.1
2021-01-14T06:25:03,42.805,6.029,0.017,0.0,0.008,107.0,107.0,105.0,13.4,1505.3,322.8,-0.7,1.9,2470.492,13.32,0.017,90.0
2021-01-14T06:28:03,42.805,6.029,0.036,-0.028,0.005,108.0,107.0,103.0,13.3,1505.3,323.6,-0.7,1.8,2470.519,13.32,0.045,127.9
2021-01-14T06:31:03,42.805,6.029,0.019,-0.039,-0.017,108.0,109.0,104.0,13.4,1505.3,322.8,-0.7,1.8,2470.521,13.32,0.043,154.0
2021-01-14T06:34:03,42.805,6.029,0.033,-0.048,0.008,107.0,109.0,104.0,13.4,1505.3,323.7,-0.7,1.8,2470.529,13.32,0.058,145.5
2021-01-14T06:37:03,42.805,6.029,0.039,-0.05,-0.022,108.0,108.0,103.0,13.4,1505.3,325.6,-0.7,1.8,2470.475,13.32,0.063,142.0
2021-01-14T06:40:03,42.805,6.029,0.03,-0.046,0.005,108.0,107.0,104.0,13.4,1505.3,325.2,-0.7,1.8,2470.489,13.32,0.054,146.9
2021-01-14T06:43:03,42.805,6.029,0.024,-0.047,-0.016,108.0,108.0,104.0,13.3,1505.3,326.5,-0.7,1.8,2470.537,13.32,0.052,153.0
2021-01-14T06:46:03,42.805,6.029,0.027,-0.026,0.04,106.0,108.0,105.0,13.4,1505.3,326.8,-0.7,1.8,2470.535,13.32,0.037,133.9
2021-01-14T06:49:03,42.805,6.029,0.047,-0.02,-0.004,107.0,108.0,104.0,13.3,1505.3,325.2,-0.7,1.9,2470.506,13.32,0.051,113.0
2021-01-14T06:52:03,42.805,6.029,0.027,-0.02,0.011,107.0,107.0,104.0,13.4,1505.3,327.0,-0.7,1.8,2470.485,13.32,0.033,126.5
2021-01-14T06:55:03,42.805,6.029,0.038,-0.068,-0.021,108.0,108.0,103.0,13.3,1505.3,327.1,-0.7,1.8,2470.496,13.32,0.077,150.8
2021-01-14T06:58:03,42.805,6.029,0.037,-0.037,0.016,108.0,108.0,104.0,13.4,1505.3,325.8,-0.7,1.8,2470.496,13.32,0.052,135.0
2021-01-14T07:04:03,42.805,6.029,0.042,-0.021,-0.007,107.0,108.0,105.0,13.4,1505.2,325.8,-0.7,1.8,2470.557,13.3,0.046,116.6
2021-01-14T07:07:03,42.805,6.029,0.03,-0.019,0.021,107.0,108.0,104.0,13.3,1505.3,327.1,-0.7,1.8,2470.594,13.31,0.035,122.3
2021-01-14T07:10:03,42.805,6.029,0.009,-0.045,0.006,108.0,108.0,104.0,13.3,1505.3,325.8,-0.7,1.8,2470.564,13.31,0.045,168.7
2021-01-14T07:13:03,42.805,6.029,0.041,-0.036,0.0,108.0,109.0,104.0,13.3,1505.3,326.0,-0.7,1.8,2470.547,13.32,0.054,131.3
2021-01-14T07:16:03,42.805,6.029,0.036,-0.039,0.013,109.0,109.0,104.0,13.3,1505.3,326.3,-0.7,1.9,2470.547,13.32,0.053,137.3
2021-01-14T07:19:03,42.805,6.029,0.052,-0.024,0.007,107.0,107.0,104.0,13.3,1505.3,324.7,-0.7,1.9,2470.553,13.32,0.057,114.8
2021-01-14T07:22:03,42.805,6.029,0.043,-0.041,0.003,108.0,108.0,104.0,13.4,1505.3,325.3,-0.7,1.8,2470.534,13.32,0.059,133.6
2021-01-14T07:25:03,42.805,6.029,0.02,-0.046,-0.009,109.0,107.0,105.0,13.4,1505.3,326.5,-0.7,1.8,2470.541,13.32,0.05,156.5
2021-01-14T07:28:03,42.805,6.029,0.042,-0.052,0.008,108.0,109.0,104.0,13.4,1505.3,326.2,-0.7,1.8,2470.571,13.32,0.066,141.1
2021-01-14T07:31:03,42.805,6.029,0.022,-0.024,-0.005,107.0,108.0,104.0,13.4,1505.3,326.8,-0.7,1.8,2470.525,13.32,0.032,137.5
2021-01-14T07:34:03,42.805,6.029,0.037,-0.026,-0.011,108.0,108.0,104.0,13.4,1505.3,326.1,-0.7,1.8,2470.54,13.32,0.045,125.1
2021-01-14T07:37:03,42.805,6.029,0.033,-0.04,-0.003,107.0,109.0,103.0,13.3,1505.3,325.4,-0.7,1.8,2470.549,13.32,0.051,140.5
2021-01-14T07:40:03,42.805,6.029,0.015,-0.039,0.004,107.0,108.0,105.0,13.3,1505.3,325.1,-0.7,1.9,2470.53,13.32,0.041,159.0
2021-01-14T07:43:03,42.805,6.029,0.033,-0.033,-0.005,109.0,108.0,104.0,13.3,1505.3,326.9,-0.7,1.8,2470.579,13.32,0.046,135.0
2021-01-14T07:46:03,42.805,6.029,0.041,-0.041,0.012,109.0,109.0,103.0,13.4,1505.3,326.5,-0.7,1.8,2470.557,13.32,0.057,135.0
2021-01-14T07:49:03,42.805,6.029,0.043,-0.03,-0.019,107.0,108.0,104.0,13.4,1505.3,325.2,-0.7,1.9,2470.553,13.32,0.052,124.9
2021-01-14T07:52:03,42.805,6.029,0.014,-0.025,-0.039,108.0,107.0,104.0,13.3,1505.3,326.4,-0.7,1.8,2470.578,13.32,0.028,150.7
2021-01-14T07:55:03,42.805,6.029,0.021,-0.032,0.005,108.0,108.0,105.0,13.3,1505.3,328.0,-0.7,1.8,2470.557,13.32,0.038,146.7
2021-01-14T07:58:03,42.805,6.029,0.013,-0.054,-0.046,107.0,108.0,104.0,13.4,1505.3,327.8,-0.7,1.8,2470.535,13.32,0.055,166.5
2021-01-14T08:04:03,42.805,6.029,0.037,-0.02,0.023,107.0,107.0,103.0,13.4,1505.2,324.0,-0.7,1.8,2470.57,13.3,0.042,118.4
2021-01-14T08:07:03,42.805,6.029,0.038,-0.043,0.004,108.0,108.0,104.0,13.4,1505.3,325.1,-0.7,1.8,2470.556,13.31,0.057,138.5
2021-01-14T08:10:03,42.805,6.029,0.037,-0.032,-0.013,108.0,109.0,104.0,13.4,1505.3,328.3,-0.7,1.8,2470.562,13.31,0.048,130.9
2021-01-14T08:13:03,42.805,6.029,0.051,-0.049,0.021,108.0,107.0,105.0,13.4,1505.3,325.1,-0.7,1.9,2470.573,13.32,0.07,133.9
2021-01-14T08:16:03,42.805,6.029,0.044,-0.027,0.011,108.0,107.0,103.0,13.3,1505.3,326.1,-0.7,1.9,2470.607,13.32,0.051,121.5
2021-01-14T08:19:03,42.805,6.029,0.042,-0.046,0.002,110.0,108.0,104.0,13.4,1505.3,323.7,-0.7,1.8,2470.523,13.32,0.062,137.6
2021-01-14T08:22:03,42.805,6.029,0.024,-0.038,-0.008,109.0,109.0,105.0,13.3,1505.3,324.9,-0.7,1.8,2470.575,13.32,0.044,147.7
2021-01-14T08:25:03,42.805,6.029,0.028,-0.014,0.012,108.0,108.0,105.0,13.4,1505.3,324.0,-0.8,1.8,2470.525,13.32,0.031,116.6
2021-01-14T08:28:03,42.805,6.029,0.007,-0.044,-0.012,108.0,108.0,105.0,13.4,1505.3,327.0,-0.7,1.8,2470.501,13.32,0.044,171.0
2021-01-14T08:34:03,42.805,6.029,0.031,-0.048,-0.008,107.0,108.0,104.0,13.3,1505.2,326.6,-0.7,1.8,2470.556,13.3,0.057,147.1
2021-01-14T08:37:03,42.805,6.029,0.029,-0.031,0.002,107.0,108.0,104.0,13.4,1505.3,325.7,-0.8,1.8,2470.595,13.31,0.042,136.9
2021-01-14T08:40:03,42.805,6.029,0.008,-0.046,0.005,107.0,108.0,103.0,13.4,1505.3,328.2,-0.7,1.9,2470.626,13.31,0.046,170.1
2021-01-14T08:43:03,42.805,6.029,0.036,-0.023,-0.02,107.0,109.0,104.0,13.4,1505.3,323.3,-0.7,1.8,2470.574,13.32,0.042,122.6
2021-01-14T08:46:03,42.805,6.029,0.017,-0.056,-0.029,106.0,108.0,104.0,13.3,1505.3,325.9,-0.7,1.8,2470.606,13.32,0.058,163.1
2021-01-14T08:49:03,42.805,6.029,0.043,-0.032,0.02,109.0,107.0,104.0,13.4,1505.3,323.3,-0.7,1.8,2470.565,13.32,0.053,126.7
2021-01-14T08:52:03,42.805,6.029,0.013,-0.027,-0.005,107.0,108.0,103.0,13.4,1505.3,323.7,-0.7,1.8,2470.556,13.32,0.029,154.3
2021-01-14T08:55:03,42.805,6.029,0.029,-0.04,-0.001,107.0,108.0,103.0,13.4,1505.3,324.9,-0.7,1.8,2470.579,13.32,0.049,144.1
2021-01-14T08:58:03,42.805,6.029,0.049,-0.023,0.014,107.0,108.0,104.0,13.4,1505.3,327.2,-0.7,1.9,2470.561,13.32,0.054,115.1
2021-01-14T09:04:03,42.805,6.029,0.013,-0.031,0.007,108.0,108.0,104.0,13.4,1505.2,322.7,-0.7,1.9,2470.582,13.3,0.033,157.3
2021-01-14T09:07:03,42.805,6.029,0.022,-0.042,0.003,108.0,108.0,105.0,13.4,1505.3,324.3,-0.7,1.8,2470.577,13.31,0.047,152.4
2021-01-14T09:10:03,42.805,6.029,0.02,-0.032,0.015,107.0,108.0,104.0,13.3,1505.3,324.4,-0.7,1.8,2470.568,13.31,0.037,148.0
2021-01-14T09:13:03,42.805,6.029,0.042,-0.047,0.019,108.0,107.0,105.0,13.3,1505.3,327.7,-0.7,1.8,2470.556,13.32,0.063,138.2
2021-01-14T09:16:03,42.805,6.029,0.017,-0.033,0.01,107.0,109.0,105.0,13.4,1505.3,327.4,-0.7,1.8,2470.564,13.32,0.037,152.7
2021-01-14T09:19:03,42.805,6.029,0.039,-0.043,0.001,107.0,108.0,104.0,13.4,1505.3,326.3,-0.7,1.8,2470.551,13.32,0.058,137.8
2021-01-14T09:22:03,42.805,6.029,0.048,-0.042,-0.007,107.0,108.0,104.0,13.4,1505.3,323.7,-0.7,1.8,2470.531,13.32,0.063,131.2
2021-01-14T09:25:03,42.805,6.029,0.04,-0.051,0.008,107.0,108.0,104.0,13.4,1505.3,326.5,-0.7,1.9,2470.543,13.32,0.064,141.9
2021-01-14T09:28:03,42.805,6.029,0.03,-0.036,0.036,108.0,109.0,105.0,13.4,1505.3,325.7,-0.7,1.8,2470.517,13.32,0.046,140.2
2021-01-14T09:31:03,42.805,6.029,0.008,-0.033,0.02,108.0,108.0,105.0,13.3,1505.3,326.9,-0.7,1.8,2470.53,13.32,0.033,166.4
2021-01-14T09:34:03,42.805,6.029,0.038,-0.029,0.017,107.0,107.0,104.0,13.4,1505.3,325.1,-0.7,1.8,2470.547,13.32,0.047,127.3
2021-01-14T09:37:03,42.805,6.029,0.023,-0.024,0.017,107.0,109.0,104.0,13.3,1505.3,326.6,-0.7,1.8,2470.531,13.32,0.033,136.2
2021-01-14T09:40:03,42.805,6.029,0.01,-0.053,-0.002,109.0,109.0,104.0,13.4,1505.3,326.8,-0.7,1.8,2470.526,13.32,0.053,169.3
2021-01-14T09:43:03,42.805,6.029,0.031,-0.032,-0.02,107.0,109.0,104.0,13.4,1505.3,326.3,-0.7,1.8,2470.535,13.32,0.044,135.9
2021-01-14T09:46:03,42.805,6.029,0.0,-0.02,-0.001,107.0,108.0,104.0,13.4,1505.3,325.0,-0.7,1.8,2470.567,13.32,0.02,180.0
2021-01-14T09:49:03,42.805,6.029,0.028,-0.042,-0.037,108.0,108.0,104.0,13.4,1505.3,326.3,-0.7,1.8,2470.523,13.32,0.05,146.3
2021-01-14T09:52:03,42.805,6.029,0.022,-0.043,0.01,108.0,108.0,104.0,13.4,1505.3,326.4,-0.7,1.8,2470.54,13.32,0.048,152.9
2021-01-14T09:55:03,42.805,6.029,0.045,-0.027,0.003,107.0,108.0,104.0,13.4,1505.3,323.8,-0.7,1.8,2470.503,13.32,0.052,121.0
2021-01-14T09:58:03,42.805,6.029,0.052,-0.031,0.001,108.0,108.0,103.0,13.3,1505.3,322.8,-0.7,1.8,2470.533,13.32,0.06,120.8
2021-01-14T10:04:03,42.805,6.029,0.024,-0.039,-0.009,107.0,107.0,104.0,13.4,1505.2,325.0,-0.7,1.8,2470.563,13.3,0.045,148.4
2021-01-14T10:07:03,42.805,6.029,0.027,-0.028,0.019,109.0,108.0,105.0,13.4,1505.3,327.7,-0.7,1.8,2470.519,13.31,0.038,136.0